Location: Newark
(41.6500°N, 71.4833°W)
Time: 00:59:18
(UTC+00:00)

deb Explorer IX - Pass Details

Date: 31 January 2020
Orbit: 549 x 1099 km, 38.8° (Epoch: 20 February)

Event Time Altitude Azimuth Distance (km) Brightness Sun altitude
Rises 03:53:23 0° 275° (W) 3,750 - -62.1°
Reaches altitude 10° 03:56:02 10° 272° (W) 2,852 - -62.4°
Maximum altitude 04:02:57 59° 195° (SSW) 1,241 - -63.0°
Drops below altitude 10° 04:10:06 10° 118° (ESE) 2,934 - -63.7°
Sets 04:12:51 0° 114° (ESE) 3,864 - -63.9°
